User: anonymous   Login
Location: *
(28.2408°N, 53.4600°E)
Time: 07:43:47
(UTC+00:00)
Language:

Cosmos 2251 Rocket - Orbit

View from above orbital plane
View from above orbital plane
View from above satellite
View from above satellite

Ground track
Ground track

The orbit data is extracted from the following two-line orbital elements,

1 22676U 93036B   19316.18764892  .00000042  00000-0  24371-4 0  9996
2 22676  74.0445  16.0144 0018954 192.1360 167.9337 14.33993251381192
Epoch (UTC): 12 November 2019 04:30:12
Eccentricity: 0.0018954
inclination: 74.0445°
perigee height: 765 km
apogee height: 792 km
right ascension of ascending node: 16.0144°
argument of perigee: 192.1360°
revolutions per day: 14.33993251
mean anomaly at epoch: 167.9337°
orbit number at epoch: 38119

The dashed part of the orbit path shows where the satellite is in the earth's shadow,  

DLR